Weather History for Hillsdale, MI

Change the Weather History Date:

Wednesday, January 2, 2013

  Actual Average Record
Temperature  
Mean Temperature 20 °F -  
Max Temperature 25 °F 31 °F 57 °F (2000)
Min Temperature 14 °F 15 °F 0 °F (1969)
Degree Days  
Heating Degree Days 45    
Moisture  
Dew Point 15 °F    
Average Humidity 75    
Maximum Humidity 84    
Minimum Humidity 69    
Precipitation  
Precipitation 0.00 in - - ()
Sea Level Pressure  
Sea Level Pressure 30.10 in    
Wind  
Wind Speed 9 mph (WSW)    
Max Wind Speed 14 mph    
Max Gust Speed 18 mph    
Visibility 10 miles    
Events Snow    
Averages and records for this station are not official NWS values.
T = Trace of Precipitation, MM = Missing Value Source: NWS Daily Summary

Daily Weather History Graph

Daily Weather History Graph

Search for Another Location

Airport:

Trip Planner

Search our weather history database for the weather conditions in past years. The results will help you decide how hot, cold, wet, or windy it might be!

Date:

Astronomy

Jan. 02, 2013 Rise Set
Actual Time 8:06 AM EST 5:19 PM EST
Civil Twilight 7:34 AM EST 5:50 PM EST
Nautical Twilight 6:59 AM EST 6:25 PM EST
Astronomical Twilight 6:25 AM EST 6:59 PM EST
Moon 10:56 PM EST (1/2) 10:42 AM EST (1/2)
Length of Visible Light 10h 15m
Length of Day
9h 12m
Waning Gibbous, 75% of the Moon is Illuminated
Jan 2
Waning Gibbous
Jan 4
Last Quarter
Jan 11
New
Jan 18
First Quarter
Jan 26
Full

Hourly Weather History & Observations

Time (EST) Temp. Windchill Dew Point Humidity Pressure Visibility Wind Dir Wind Speed Gust Speed Precip Events Conditions
12:15 AM 19.9 °F 9.3 °F 11.7 °F 70% 30.06 in 10.0 mi West 9.2 mph - N/A   Overcast
12:35 AM 19.9 °F 9.3 °F 11.5 °F 70% 30.06 in 10.0 mi West 9.2 mph - N/A   Overcast
12:54 AM 19.8 °F 8.3 °F 11.5 °F 70% 30.05 in 10.0 mi West 10.4 mph - N/A   Overcast
1:15 AM 19.8 °F 9.9 °F 11.5 °F 70% 30.05 in 10.0 mi West 8.1 mph - N/A   Overcast
1:35 AM 19.9 °F 8.6 °F 11.5 °F 70% 30.05 in 10.0 mi West 10.4 mph - N/A   Overcast
1:54 AM 20.1 °F 6.9 °F 11.7 °F 70% 30.05 in 10.0 mi WNW 13.8 mph 18.4 mph N/A   Overcast
2:14 AM 20.5 °F 10.0 °F 11.8 °F 69% 30.05 in 10.0 mi West 9.2 mph - N/A   Overcast
2:35 AM 20.1 °F 7.5 °F 11.7 °F 70% 30.05 in 10.0 mi WNW 12.7 mph 17.3 mph N/A   Overcast
2:54 AM 20.7 °F 10.2 °F 12.0 °F 69% 30.06 in 10.0 mi West 9.2 mph - N/A   Overcast
3:15 AM 20.3 °F 8.3 °F 12.2 °F 71% 30.06 in 10.0 mi WNW 11.5 mph - N/A   Overcast
3:35 AM 20.7 °F 8.2 °F 12.2 °F 70% 30.07 in 10.0 mi West 12.7 mph 17.3 mph N/A   Overcast
3:55 AM 20.7 °F 8.8 °F 12.4 °F 70% 30.07 in 10.0 mi West 11.5 mph - N/A   Overcast
4:15 AM 20.7 °F 8.8 °F 12.6 °F 71% 30.07 in 10.0 mi WNW 11.5 mph - N/A   Overcast
4:34 AM 19.9 °F 8.6 °F 11.8 °F 71% 30.06 in 10.0 mi West 10.4 mph 13.8 mph N/A   Overcast
4:55 AM 19.6 °F 6.2 °F 11.5 °F 71% 30.05 in 10.0 mi WNW 13.8 mph - N/A   Mostly Cloudy
5:14 AM 19.6 °F 10.6 °F 11.7 °F 71% 30.07 in 10.0 mi West 6.9 mph - N/A   Mostly Cloudy
5:35 AM 19.9 °F 8.6 °F 12.0 °F 71% 30.07 in 10.0 mi WNW 10.4 mph - N/A   Overcast
5:54 AM 19.9 °F 8.6 °F 11.7 °F 70% 30.08 in 10.0 mi WNW 10.4 mph - N/A   Overcast
6:15 AM 20.1 °F 6.9 °F 11.8 °F 70% 30.08 in 10.0 mi WNW 13.8 mph - N/A   Overcast
6:34 AM 20.7 °F 8.8 °F 12.4 °F 70% 30.08 in 10.0 mi WNW 11.5 mph - N/A   Overcast
6:54 AM 20.7 °F 9.5 °F 12.2 °F 70% 30.08 in 10.0 mi WNW 10.4 mph - N/A   Overcast
7:15 AM 20.7 °F 9.5 °F 12.4 °F 70% 30.09 in 10.0 mi WNW 10.4 mph - N/A   Overcast
7:34 AM 19.9 °F 13.4 °F 11.8 °F 71% 30.08 in 10.0 mi West 4.6 mph - N/A   Overcast
7:55 AM 19.2 °F 14.1 °F 12.0 °F 74% 30.07 in 10.0 mi West 3.5 mph - N/A   Overcast
8:14 AM 19.6 °F 13.0 °F 12.7 °F 75% 30.08 in 10.0 mi West 4.6 mph - N/A   Overcast
8:35 AM 20.1 °F 15.2 °F 13.3 °F 75% 30.08 in 10.0 mi WSW 3.5 mph - N/A   Overcast
8:55 AM 20.1 °F 12.3 °F 13.6 °F 76% 30.09 in 10.0 mi West 5.8 mph - N/A   Overcast
9:14 AM 20.7 °F 11.0 °F 14.2 °F 76% 30.10 in 10.0 mi West 8.1 mph - N/A   Overcast
9:35 AM 21.0 °F 13.4 °F 14.7 °F 77% 30.11 in 10.0 mi West 5.8 mph - N/A   Overcast
9:54 AM 21.4 °F 10.4 °F 14.9 °F 76% 30.12 in 10.0 mi West 10.4 mph - N/A   Overcast
10:15 AM 21.6 °F 11.3 °F 15.3 °F 77% 30.13 in 10.0 mi West 9.2 mph 16.1 mph N/A   Overcast
10:35 AM 21.9 °F 9.8 °F 15.4 °F 76% 30.14 in 10.0 mi WNW 12.7 mph - N/A   Overcast
10:54 AM 22.5 °F 11.7 °F 15.8 °F 76% 30.14 in 10.0 mi WNW 10.4 mph - N/A   Overcast
11:15 AM 22.8 °F 13.6 °F 16.0 °F 75% 30.14 in 10.0 mi WNW 8.1 mph - N/A   Overcast
11:34 AM 23.2 °F 14.1 °F 16.0 °F 74% 30.14 in 10.0 mi West 8.1 mph - N/A Snow Light Snow
11:55 AM 23.5 °F 14.5 °F 16.3 °F 74% 30.13 in 10.0 mi WNW 8.1 mph - N/A   Overcast
12:15 PM 24.1 °F 15.2 °F 16.7 °F 73% 30.12 in 10.0 mi West 8.1 mph - N/A   Overcast
12:34 PM 24.3 °F 15.4 °F 17.1 °F 74% 30.13 in 10.0 mi West 8.1 mph - N/A   Overcast
12:55 PM 24.4 °F 16.5 °F 17.2 °F 74% 30.12 in 10.0 mi West 6.9 mph - N/A   Overcast
1:14 PM 24.6 °F 16.7 °F 17.8 °F 75% 30.12 in 10.0 mi West 6.9 mph - N/A   Overcast
1:34 PM 24.6 °F 17.7 °F 17.8 °F 75% 30.11 in 10.0 mi WSW 5.8 mph - N/A   Overcast
1:55 PM 25.2 °F 18.3 °F 18.1 °F 75% 30.11 in 10.0 mi West 5.8 mph - N/A   Overcast
2:14 PM 25.2 °F 19.5 °F 18.3 °F 75% 30.10 in 10.0 mi WNW 4.6 mph - N/A   Overcast
2:35 PM 25.0 °F 18.1 °F 18.9 °F 78% 30.10 in 10.0 mi West 5.8 mph - N/A   Overcast
2:54 PM 24.6 °F 18.8 °F 18.3 °F 77% 30.10 in 10.0 mi WSW 4.6 mph - N/A   Overcast
3:14 PM 24.4 °F 20.1 °F 18.3 °F 78% 30.10 in 10.0 mi SW 3.5 mph - N/A   Overcast
3:35 PM 24.3 °F 18.4 °F 18.1 °F 77% 30.11 in 10.0 mi SW 4.6 mph - N/A   Overcast
3:54 PM 24.3 °F 19.9 °F 18.3 °F 78% 30.11 in 10.0 mi WSW 3.5 mph - N/A   Overcast
4:14 PM 24.3 °F 19.9 °F 18.3 °F 78% 30.11 in 10.0 mi SW 3.5 mph - N/A   Overcast
4:35 PM 24.1 °F 17.0 °F 18.3 °F 79% 30.12 in 10.0 mi SSW 5.8 mph - N/A   Overcast
4:55 PM 24.1 °F 18.2 °F 18.5 °F 79% 30.12 in 10.0 mi SW 4.6 mph - N/A   Overcast
5:14 PM 23.5 °F 16.4 °F 18.1 °F 80% 30.12 in 10.0 mi SW 5.8 mph - N/A   Overcast
5:34 PM 23.5 °F 17.6 °F 18.3 °F 80% 30.12 in 10.0 mi SW 4.6 mph - N/A   Overcast
6:14 PM 23.4 °F 15.2 °F 18.3 °F 81% 30.13 in 10.0 mi SW 6.9 mph - N/A   Overcast
6:35 PM 23.4 °F 15.2 °F 18.3 °F 81% 30.14 in 10.0 mi SSW 6.9 mph - N/A   Overcast
6:54 PM 23.2 °F 15.0 °F 18.0 °F 80% 30.15 in 10.0 mi SW 6.9 mph - N/A   Overcast
7:35 PM 22.6 °F 18.0 °F 17.4 °F 80% 30.15 in 10.0 mi SSW 3.5 mph - N/A   Overcast
7:54 PM 22.5 °F 15.1 °F 17.2 °F 80% 30.14 in 10.0 mi SSW 5.8 mph - N/A   Overcast
8:14 PM 22.5 °F 16.3 °F 17.4 °F 81% 30.14 in 10.0 mi South 4.6 mph - N/A   Overcast
8:35 PM 21.7 °F 15.5 °F 16.7 °F 81% 30.13 in 10.0 mi SSW 4.6 mph - N/A   Overcast
8:55 PM 21.4 °F 13.8 °F 16.5 °F 82% 30.13 in 10.0 mi SSW 5.8 mph - N/A   Overcast
9:15 PM 20.1 °F 10.3 °F 15.3 °F 81% 30.13 in 10.0 mi SSW 8.1 mph - N/A   Mostly Cloudy
9:35 PM 19.6 °F 13.0 °F 15.1 °F 83% 30.13 in 10.0 mi SSW 4.6 mph - N/A   Scattered Clouds
9:54 PM 18.3 °F 10.2 °F 14.2 °F 84% 30.13 in 10.0 mi SSW 5.8 mph - N/A   Clear
10:15 PM 18.0 °F 8.7 °F 13.6 °F 83% 30.13 in 10.0 mi South 6.9 mph - N/A   Clear
10:35 PM 17.1 °F 8.7 °F 12.2 °F 81% 30.12 in 10.0 mi South 5.8 mph - N/A   Clear
10:54 PM 16.5 °F 6.0 °F 10.8 °F 78% 30.12 in 10.0 mi South 8.1 mph - N/A   Clear
11:14 PM 15.6 °F 4.9 °F 9.9 °F 78% 30.12 in 10.0 mi South 8.1 mph - N/A   Clear
11:34 PM 15.3 °F 5.4 °F 9.0 °F 76% 30.12 in 10.0 mi South 6.9 mph - N/A   Clear
11:55 PM 14.7 °F 2.9 °F 8.6 °F 77% 30.11 in 10.0 mi South 9.2 mph - N/A   Clear